Weather History for Greybull, WY

Change the Weather History Date:

Friday, January 11, 2013

  Actual Average Record
Temperature  
Mean Temperature 15 °F 16 °F  
Max Temperature 23 °F 29 °F 50 °F (2006)
Min Temperature 7 °F 4 °F -19 °F (2011)
Degree Days  
Heating Degree Days 50 49  
Month to date heating degree days 564 539  
Since 1 July heating degree days 3543 3862  
Cooling Degree Days 0 0  
Month to date cooling degree days 0 0  
Year to date cooling degree days 0 0  
Moisture  
Dew Point 8 °F    
Average Humidity 70    
Maximum Humidity 88    
Minimum Humidity 52    
Precipitation  
Precipitation T in 0.00 in 0.14 in (2000)
Month to date precipitation T 0.10  
Year to date precipitation T 0.10  
Sea Level Pressure  
Sea Level Pressure 29.68 in    
Wind  
Wind Speed 25 mph (NW)    
Max Wind Speed 36 mph    
Max Gust Speed 43 mph    
Visibility 3 miles    
Events Fog , Snow    
T = Trace of Precipitation, MM = Missing Value Source: NWS Daily Summary

Daily Weather History Graph

Daily Weather History Graph

Search for Another Location

Airport:

Trip Planner

Search our weather history database for the weather conditions in past years. The results will help you decide how hot, cold, wet, or windy it might be!

Date:

Astronomy

Jan. 11, 2013 Rise Set
Actual Time 7:47 AM MST 4:54 PM MST
Civil Twilight 7:14 AM MST 5:26 PM MST
Nautical Twilight 6:38 AM MST 6:02 PM MST
Astronomical Twilight 6:03 AM MST 6:38 PM MST
Moon 7:20 AM MST (1/11) 5:18 PM MST (1/11)
Length of Visible Light 10h 12m
Length of Day
9h 06m
Waning Crescent, 0% of the Moon is Illuminated
Jan 11
Waning Crescent
Jan 11
New
Jan 18
First Quarter
Jan 26
Full
Feb 3
Last Quarter

Hourly Weather History & Observations

Time (MST) Temp. Windchill Dew Point Humidity Pressure Visibility Wind Dir Wind Speed Gust Speed Precip Events Conditions
12:02 AM 23.0 °F 7.6 °F 19.4 °F 86% 29.44 in 2.5 mi WNW 21.9 mph - 0.00 in Snow Light Snow
12:11 AM 23.0 °F 8.7 °F 19.4 °F 86% 29.45 in 1.2 mi WNW 18.4 mph - 0.00 in Snow Light Snow
12:42 AM 21.2 °F 4.9 °F 17.6 °F 86% 29.45 in 0.8 mi NW 23.0 mph - 0.00 in Snow Light Snow
12:53 AM 21.0 °F 5.7 °F 17.1 °F 85% 29.52 in 1.0 mi WNW 19.6 mph - 0.00 in Snow Light Snow
1:08 AM 21.2 °F 6.8 °F 17.6 °F 86% 29.46 in 1.2 mi WNW 17.3 mph - 0.00 in Snow Light Snow
1:39 AM 19.4 °F 3.6 °F 17.6 °F 93% 29.46 in 1.8 mi WNW 19.6 mph - 0.00 in Snow Light Snow
1:47 AM 19.4 °F 2.1 °F 15.8 °F 86% 29.46 in 3.0 mi WNW 24.2 mph - 0.00 in Snow Light Snow
2:14 AM 19.4 °F 1.4 °F 14.0 °F 80% 29.48 in 1.8 mi NW 26.5 mph 39.1 mph 0.00 in Snow Light Snow
2:29 AM 17.6 °F -1.9 °F 14.0 °F 86% 29.48 in 2.0 mi NW 29.9 mph 38.0 mph 0.00 in Snow Light Snow
2:39 AM 17.6 °F -1.6 °F 14.0 °F 86% 29.48 in 1.8 mi NW 28.8 mph 40.3 mph 0.00 in Snow Light Snow
2:53 AM 18.0 °F -1.1 °F 12.9 °F 81% 29.56 in 2.0 mi NW 28.8 mph 38.0 mph 0.00 in Snow Light Snow
3:03 AM 17.6 °F -1.9 °F 14.0 °F 86% 29.49 in 1.5 mi NW 29.9 mph 35.7 mph 0.00 in Snow Light Snow
3:15 AM 17.6 °F -1.0 °F 14.0 °F 86% 29.49 in 1.0 mi NW 26.5 mph 34.5 mph 0.00 in Snow Light Snow
3:18 AM 17.6 °F -0.6 °F 14.0 °F 86% 29.49 in 0.8 mi NW 25.3 mph 33.4 mph 0.00 in Snow Light Snow
3:36 AM 17.6 °F -0.6 °F 14.0 °F 86% 29.49 in 1.0 mi NW 25.3 mph 34.5 mph 0.00 in Snow Light Snow
3:53 AM 18.0 °F -0.2 °F 14.0 °F 84% 29.57 in 2.0 mi NW 25.3 mph 32.2 mph 0.00 in Snow Light Snow
4:12 AM 17.6 °F -1.3 °F 12.2 °F 79% 29.49 in 1.2 mi NW 27.6 mph 35.7 mph 0.00 in Snow Light Snow
4:23 AM 17.6 °F -2.2 °F 12.2 °F 79% 29.50 in 1.0 mi NNW 31.1 mph 38.0 mph 0.00 in Snow Light Snow
4:31 AM 17.6 °F 0.1 °F 12.2 °F 79% 29.50 in 0.8 mi NNW 23.0 mph 36.8 mph 0.00 in Snow Light Snow
4:38 AM 17.6 °F 0.1 °F 12.2 °F 79% 29.51 in 0.8 mi NW 23.0 mph 34.5 mph 0.00 in Snow Light Snow
4:45 AM 15.8 °F -1.5 °F 12.2 °F 86% 29.51 in 0.8 mi NW 20.7 mph 32.2 mph 0.00 in Snow Light Snow
4:53 AM 15.1 °F -3.3 °F 12.0 °F 88% 29.59 in 0.5 mi NW 23.0 mph 29.9 mph 0.00 in Fog , Snow Snow
5:03 AM 15.8 °F -2.7 °F 12.2 °F 86% 29.50 in 1.0 mi NW 24.2 mph 29.9 mph 0.00 in Snow Light Snow
5:16 AM 15.8 °F -3.4 °F 10.4 °F 79% 29.51 in 1.2 mi NW 26.5 mph - 0.00 in Snow Light Snow
5:27 AM 15.8 °F -2.7 °F 10.4 °F 79% 29.52 in 1.8 mi NW 24.2 mph 32.2 mph 0.00 in Snow Light Snow
5:53 AM 14.0 °F -6.2 °F 10.0 °F 84% 29.63 in 1.2 mi NW 27.6 mph 34.5 mph 0.00 in Snow Light Snow
6:06 AM 14.0 °F -6.5 °F 8.6 °F 79% 29.53 in 0.8 mi NW 28.8 mph 33.4 mph 0.00 in Snow Light Snow
6:22 AM 14.0 °F -6.5 °F 8.6 °F 79% 29.54 in 1.0 mi NW 28.8 mph 34.5 mph 0.00 in Snow Light Snow
6:40 AM 12.2 °F -8.9 °F 8.6 °F 85% 29.55 in 0.8 mi NW 28.8 mph 39.1 mph 0.00 in Snow Light Snow
6:51 AM 12.2 °F -8.6 °F 8.6 °F 85% 29.55 in 1.0 mi NW 27.6 mph 34.5 mph 0.00 in Snow Light Snow
6:53 AM 12.9 °F -7.6 °F 8.1 °F 81% 29.66 in 1.0 mi NW 27.6 mph - 0.00 in Snow Light Snow
7:00 AM 12.2 °F -8.9 °F 8.6 °F 85% 29.55 in 1.2 mi NW 28.8 mph 34.5 mph 0.00 in Snow Light Snow
7:32 AM 14.0 °F -6.2 °F 6.8 °F 73% 29.56 in 2.5 mi NW 27.6 mph 32.2 mph 0.00 in Snow Light Snow
7:39 AM 14.0 °F -6.2 °F 6.8 °F 73% 29.57 in 4.0 mi NNW 27.6 mph 33.4 mph 0.00 in Snow Light Snow
7:53 AM 15.1 °F -5.0 °F 6.1 °F 68% 29.69 in 5.0 mi NNW 28.8 mph 34.5 mph 0.00 in   Overcast
8:53 AM 12.9 °F -8.3 °F 3.0 °F 65% 29.73 in 5.0 mi NNW 29.9 mph 41.4 mph 0.00 in Snow Blowing Snow
9:53 AM 12.0 °F -6.5 °F 1.9 °F 64% 29.78 in 10.0 mi NNW 20.7 mph 35.7 mph N/A   Overcast
10:53 AM 12.9 °F -6.9 °F 1.0 °F 59% 29.82 in 6.0 mi NW 25.3 mph 34.5 mph 0.00 in Snow Light Snow
11:53 AM 12.9 °F -7.3 °F 1.0 °F 59% 29.85 in 6.0 mi NW 26.5 mph 33.4 mph 0.00 in   Overcast
12:01 PM 12.2 °F -7.5 °F 1.4 °F 62% 29.70 in 3.0 mi NW 24.2 mph 32.2 mph 0.00 in Snow Light Snow
12:06 PM 12.2 °F -7.9 °F 3.2 °F 67% 29.70 in 1.8 mi NNW 25.3 mph 33.4 mph 0.00 in Snow Light Snow
12:17 PM 12.2 °F -8.6 °F 5.0 °F 73% 29.70 in 1.0 mi NNW 27.6 mph 35.7 mph 0.00 in Snow Light Snow
12:30 PM 12.2 °F -7.5 °F 3.2 °F 67% 29.71 in 2.0 mi NNW 24.2 mph 33.4 mph 0.00 in Snow Light Snow
12:34 PM 12.2 °F -8.2 °F 3.2 °F 67% 29.71 in 3.0 mi NNW 26.5 mph 32.2 mph 0.00 in Snow Light Snow
12:49 PM 12.2 °F -8.2 °F 3.2 °F 67% 29.71 in 1.8 mi NNW 26.5 mph 33.4 mph 0.00 in Snow Light Snow
1:05 PM 12.2 °F -7.9 °F 1.4 °F 62% 29.71 in 6.0 mi NNW 25.3 mph - 0.00 in   Haze
1:53 PM 10.9 °F -11.0 °F 1.9 °F 67% 29.90 in 9.0 mi NNW 29.9 mph 38.0 mph 0.00 in   Overcast
2:53 PM 10.9 °F -7.9 °F -0.0 °F 61% 29.94 in 10.0 mi NNW 20.7 mph 29.9 mph N/A   Mostly Cloudy
3:53 PM 10.9 °F -8.3 °F -2.9 °F 54% 29.98 in 10.0 mi NW 21.9 mph 31.1 mph N/A   Partly Cloudy
4:53 PM 10.0 °F -10.0 °F -4.0 °F 53% 30.02 in 10.0 mi NW 23.0 mph - N/A   Clear
5:53 PM 9.0 °F -12.2 °F -2.9 °F 59% 30.06 in 10.0 mi NW 25.3 mph 32.2 mph N/A   Clear
6:53 PM 10.0 °F -10.0 °F -2.9 °F 56% 30.10 in 10.0 mi NW 23.0 mph 28.8 mph N/A   Overcast
7:50 PM 8.6 °F -12.3 °F -0.4 °F 67% 29.92 in 2.5 mi NW 24.2 mph 38.0 mph 0.00 in Snow Light Snow
7:53 PM 9.0 °F -12.2 °F 1.0 °F 70% 30.12 in 2.5 mi NW 25.3 mph 38.0 mph 0.00 in Snow Light Snow
8:02 PM 8.6 °F -13.8 °F 1.4 °F 73% 29.92 in 4.0 mi NW 28.8 mph 34.5 mph 0.00 in Snow Light Snow
8:53 PM 9.0 °F -12.6 °F -0.9 °F 64% 30.14 in 10.0 mi NNW 26.5 mph 38.0 mph 0.00 in   Overcast
9:53 PM 8.1 °F -14.5 °F -0.9 °F 67% 30.16 in 10.0 mi NW 28.8 mph 38.0 mph N/A   Overcast
10:53 PM 7.0 °F -14.9 °F -0.0 °F 73% 30.18 in 6.0 mi NNW 25.3 mph 31.1 mph 0.00 in Snow Light Snow
11:14 PM 6.8 °F -15.5 °F -0.4 °F 72% 29.97 in 2.0 mi NNW 26.5 mph 33.4 mph 0.00 in Snow Light Snow
11:53 PM 7.0 °F -12.1 °F -0.0 °F 73% 30.20 in 2.0 mi NNW 18.4 mph 29.9 mph 0.00 in Snow Light Snow